Погода в Новочебоксарске

Россия / Чувашская Республика     56°06′34″N   47°28′44″E
темп.,
°C
ветер,
м/с
пор.,
м/с
влажн.,
%
обл.,
%
осадки,
мм/ч
давл.,
гПа
погр.,
м
11 апреля, вс
вс1100:00+1ссв24100100 0.0 1026100
03:00+1с2699100 0.0 1027164
06:00+1ссз37100100 0.1 1028220
09:00+2ссз3610092 0.1 1029254
12:00+5ссз2391100 0.0 1030313
15:00+6с1293100 0.0 103272
18:00+3вюв0093100 0.0 103313
21:00+2св2291100 0.0 103423
12 апреля, пн
пн1200:00+1всв1189100 0.0 103610
03:00+1св2388100 0.0 103744
06:000св2691100 0.0 1038130
09:00+5всв598186 0.0 1038324
12:00+9в696890 0.0 1037583
15:00+8в5974100 0.0 1037487
18:00+6в41188100 0.0 1036347
21:00+4в31088100 0.0 1036206
13 апреля, вт
вт1300:00+3вюв389495 0.0 1036134
03:00+3юв239591 0.0 103541
06:00+5ююв369476 0.0 1034107
09:00+11ю477995 0.0 1034268
12:00+15ю4669100 0.0 1032494
15:00+17ю565966 0.0 1031858
18:00+13ююв497158 0.0 1030171
21:00+9ю377281 0.0 1030101
14 апреля, ср
ср1400:00+8ю347233 0.0 103050
03:00+7ююз347126 0.0 102935
06:00+7ю337264 0.0 102941
09:00+12ю3556100 0.0 1029285
12:00+17ююз454441 0.0 1027922
15:00+18ю45395 0.0 10261294
18:00+14ююв36565 0.0 102593
21:00+10ю35635 0.0 102562
15 апреля, чт
чт1500:00+8ю33665 0.0 102430
03:00+7ю336833 0.0 102322
06:00+7ю337058 0.0 102249
09:00+13ююз355382 0.0 1021355
12:00+17ююз4440100 0.0 10201019
15:00+18зюз3436100 0.0 10181384
18:00+14зсз335366 0.0 101743
21:00+11з225963 0.0 101610